www.pogodaiklimat.ru
ПОГОДА в Картахене
Время
(UTC), дата
12 8.07
15 8.07
18 8.07
21 8.07
12 9.07
15 9.07
18 9.07
21 9.07
12 10.07
15 10.07
18 10.07
21 10.07
12 11.07
18 11.07
21 11.07
15 12.07
21 12.07
12 13.07
15 13.07
18 13.07
21 13.07
12 14.07
15 14.07
18 14.07
21 14.07
Ветер
(напр.,м/с)
Видим. Явления Облачность Т
(С)
Тd
(С)
f
(%)
Тe
(С)
Тes
(С)
Комфортность P
(гПа)
Po
(гПа)
Тmin
(С)
Tmax
(С)
R
(мм)
R24
(мм)
S
(см)
Ю 6 10 км слаб. морось 10/5 300 м
[Cu med, cong Ac trans]
+27.1 +25.6 92 +40 +40 очень
душно
1010.0 1009.8 +26.6 0.5 0.5
Ю 4 18 км мгла 9/9 450 м
[]
+29.7 +25.4 78 +44 +45 опасность
перегрева
1010.8 1010.6
СЗ 3 5000 м дождь 10/8 240 м
[Frnb As op]
+28.4 +25.6 85 +42 +43 опасность
перегрева
1010.2 1010.0
С 3 12 км {гроза, дождь} 10/4 420 м
[Frnb Ac As]
+26.8 +25.9 95 +40 +41 очень
душно
1009.2 1009.0
ЮВ 1 18 км туман поземный 4/1 450 м
[Cu Sc Ac trans]
+26.8 +25.2 91 +39 +40 очень
душно
1010.8 1010.6 +25.3 10 10
СЗ 4 18 км 4/1 450 м
[Cu hum Ci fib]
+30.0 +25.3 76 +44 +53 опасность
перегрева
1010.9 1010.7
С 3 18 км 4/1 450 м
[Cu Sc Ci fib]
+31.2 +25.3 71 +45 +59 опасность
перегрева
1009.6 1009.4
С 6 18 км 4/3 480 м
[Cu Sc Ci fib]
+30.8 +25.9 75 +46 +48 опасность
перегрева
1007.5 1007.3
Ю 1 12 км мгла 1/1 450 м
[Cu hum]
+27.5 +26.4 94 +42 +44 опасность
перегрева
1009.1 1008.9 +26.1
В 2 14 км мгла 1/1 500 м
[Cu hum]
+32.2 +26.5 72 +49 +64 опасность
перегрева
1009.6 1009.4
С 3 14 км мгла 3/3 450 м
[Cb cap]
+32.3 +26.4 71 +49 +60 опасность
перегрева
1009.6 1009.4
С 7 13 км мгла 5/3 450 м
[Cu med, cong Ac cuf Ci ing]
+31.4 +25.8 72 +46 +47 опасность
перегрева
1008.5 1008.3
ЮЗ 7 14 км мгла 9/4 400 м
[Cu Sc Ac As Cs]
+28.8 +26.1 85 +43 +44 опасность
перегрева
1010.1 1009.9 +27.0
ЮЗ 3 15 км {гроза} 10/3 420 м
[Cu med, cong Ac As]
+27.5 +24.3 83 +39 +42 очень
душно
1011.4 1011.2
З 2 19 км {гроза} 10/1 420 м
[Cu Sc Ac As Cs]
+28.5 +25.3 83 +42 +44 опасность
перегрева
1009.6 1009.4
СЗ 3 12 км осадки на расстоянии 8/5 400 м
[Cb cap Ac trans Cc]
+27.9 +25.2 85 +40 +45 очень
душно
1013.5 1013.3
СЗ 5 18 км 6/1 480 м
[Cu Sc Ac trans Ci fib]
+30.1 +25.4 76 +44 +46 опасность
перегрева
1008.8 1008.6
ЮВ 1 12 км мгла 4/1 450 м
[Cu hum Ac trans Ci fib]
+28.2 +26.2 89 +43 +44 опасность
перегрева
1010.2 1010.0 +26.6
С 2 17 км мгла 4/3 500 м
[Cu hum Ac trans]
+32.8 +26.2 68 +49 +59 опасность
перегрева
1010.4 1010.2
С 5 17 км 1/1 500 м
[Cu Sc]
+31.4 +25.8 72 +46 +56 опасность
перегрева
1009.8 1009.6
С 5 17 км 4/3 450 м
[Cb cap Ci fib]
+31.4 +25.7 72 +46 +49 опасность
перегрева
1008.1 1007.9
Ю 6 12 км 10/1 480 м
[Sc diur, vesp Ac As]
+25.6 +23.1 86 +34 +34 очень
душно
1010.1 1009.9 +24.1
ЮВ 2 18 км 9/1 480 м
[Cu Sc Ac As Cs]
+28.4 +24.6 80 +40 +48 очень
душно
1012.2 1012.0
З 2 18 км 9/1 480 м
[Cu hum Ac trans Cs]
+30.4 +24.3 70 +42 +53 опасность
перегрева
1011.0 1010.8
С 4 18 км 10/1 500 м
[Cu Sc Ac As Cs]
+29.6 +23.6 70 +40 +42 очень
душно
1009.2 1009.0
Местоположение метеостанции Картахена (Колумбия): широта 10.45 долгота -75.51 высота над уровнем моря 12 м.
В архиве по умолчанию представлена погода в Картахене за последнюю неделю. Архивные данные за месяц целиком и за предыдущие месяцы, начиная с января 2011 года, Вы можете получить, выбрав интересующий диапазон дат из раскрывающегося списка и нажав кнопку "Найти!".
*Определитесь, кто Вы:
Внимание! Время в таблицах - всемирное. Для получения местного времени необходимо прибавить поправку, которая равна -5 ч.
Смотрите также архив погоды в соседних городах и на ближайших метеорологических станциях:
Партнеры нашего сайта:      
Пояснения к столбцам:
  • Ветер - указаны скорость ветра в м/с - средняя за 10 мин, порывы в срок и между сроками (в фигурных скобках) и направление, откуда дует ветер: С - северный,
  • СВ - северо-восточный, В - восточный, ЮВ - юго-восточный, Ю - южный, ЮЗ - юго-западный, З - западный, СЗ - северо-западный.
  • Видимость - горизонтальная дальность видимости в метрах или километрах. При видимости от 1 до 10 км при отсутствии осадков обычно наблюдается дымка, при ухудшении видимости до 1 км и менее - туман. В сухую погоду видимость может ухудшаться дымом, пылью или мглою.
  • Явления - указаны атмосферные явления, наблюдавшиеся в срок или в последний час перед сроком; фигурными скобками обозначены явления, наблюдавшиеся между сроками (за 1-3 часа до срока); квадратными скобками обозначены град или гололедные отложения с указанием их диаметра в мм.
  • Облачность - указаны через наклонную черту общая и нижняя облачность в баллах и высота нижней границы облаков в метрах; квадратными скобками обозначены формы облаков: Ci - перистые, Cs - перисто-слоистые, Cc - перисто-кучевые, Ac - высококучевые, As - высокослоистые, Sc - слоисто-кучевые, Ns - слоисто-дождевые, Cu - кучевые, Cb - кучево-дождевые. Подробнее классификацию облаков см. в Атласе облаков (PDF).
  • T - Температура воздуха - температура, измеренная на высоте 2 м над землей.
  • Td - Температура точки росы - температура, при понижении до которой содержащийся в воздухе водяной пар достигнет насыщения.
  • f - Относительная влажность воздуха - влажноcть воздуха, измеренная на высоте 2 м над землей.
  • Te - Эффективная температура - температура, которую ощущает одетый по сезону человек в тени. Характеристика душности погоды. При расчете учитывается влияние влажности воздуха и скорости ветра на теплоощущения человека.
  • Tes - Эффективная температура на солнце - температура, которую ощущает человек, с поправкой на солнечный нагрев. Характеристика знойности погоды. Зависит от высоты солнца над горизонтом, облачности и скорости ветра. Ночью, в пасмурную погоду, а также при ветре 12 м/с и более поправка равна нулю.
  • P - Атмосферное давление - приведенное к уровню моря атмосферное давление.
  • Po - Атмосферное давление - измеренное на уровне метеостанции атмосферное давление.
  • Tmin - Минимальная температура - минимум температуры воздуха на высоте 2 м над землей.
  • Tmax - Максимальная температура - максимум температуры воздуха на высоте 2 м над землей.
  • R - Количество осадков - Количество выпавших осадков за период времени, мм. При наведении курсора мыши на число - период времени, за который выпало указанное количество осадков.
  • R24 - Количество осадков - Количество выпавших осадков за 24 часа, мм.
  • S - Снежный покров - Высота снежного покрова, см. При наведении курсора мыши на число - состояние снежного покрова и степень покрытия местности в баллах.